Miscellaneous Local Product
Issued by NWS North Platte, NE

Home | Current Version | Previous Version | Text Only | Print | Product List | Glossary On
Versions: 1 2 3 4 5 6 7 8 9 10 11 12 13 14 15 16 17 18 19 20 21 22 23 24 25 26 27 28 29 30 31 32 33 34 35 36 37 38 39 40 41 42 43 44 45 46 47 48 49 50
782
AXUS43 KLBF 140210
MISLBF


WESTERN AND NORTH CENTRAL NEBRASKA HOURLY WEATHER ROUNDUP
NATIONAL WEATHER SERVICE NORTH PLATTE NE
800 PM CST SAT FEB 13 2016

NOTE: "FAIR" INDICATES FEW OR NO CLOUDS BELOW 12,000 FEET WITH NO
SIGNIFICANT WEATHER AND/OR OBSTRUCTIONS TO VISIBILITY.

NOTE: STATIONS NOT REPORTING VARIABLES SUCH AS SKY/WEATHER OR
PRESSURE ARE PROVIDED BY THE NEBRASKA DEPARTMENT OF
ROADS...RAWS...AND APRS NETWORKS...AND ARE NOT UNDER
NATIONAL WEATHER SERVICE QUALITY CONTROL.

...OBSERVATIONS IN AND NEAR THE EASTERN PANHANDLE OF NEBRASKA...

CITY           SKY/WX    TMP DP  RH WIND       PRES   REMARKS
PINE RIDGE     CLOUDY    40  32  73 NW36G45   29.85R WCI  27
CHADRON        LGT RAIN  40  32  73 NW41G55   29.93R WCI  27
ALLIANCE       CLEAR     39  31  72 NW28G43   29.89R WCI  28
SIDNEY         CLOUDY    37  33  85 SW12      29.89R WCI  29
CRESCENT LAKE    N/A     31  31  98 S5G13       N/A  WCI  26
$$

...OBSERVATIONS IN NORTH CENTRAL NEBRASKA...

CITY           SKY/WX    TMP DP  RH WIND       PRES   REMARKS
VALENTINE      CLOUDY    27  24  89 S22G29    29.82F WCI  13
THEDFORD       CLOUDY    28  26  95 S21G28    29.89F FOG     WCI  14
AINSWORTH      CLOUDY    25  21  86 S21G29    29.88F WCI  10
O`NEILL        CLOUDY    20  11  66 S20       30.01F WCI   5
ORD            CLOUDY    20   9  62 S14       30.01F WCI   7
BROKEN BOW     CLOUDY    22  14  71 S17G24    29.98F WCI   8
VALENTINE NWR    N/A     25  24  93 S16G26      N/A  WCI  12
BUTTE            N/A     19  12  73 SE22        N/A  WCI   2
HALSEY           N/A     24  21  87 S10G21      N/A  WCI  14
CHAMBERS         N/A     19   7  60 S6G13       N/A  WCI  11
EWING            N/A     18  12  77 SE10G18     N/A  WCI   6
$$

...OBSERVATIONS IN SOUTHWEST NEBRASKA AND FAR NORTHEAST COLORADO...

CITY           SKY/WX    TMP DP  RH WIND       PRES   REMARKS
WRAY           FAIR      35  32  87 CALM      29.91S
HOLYOKE        FAIR      34  32  93 S7        29.91R WCI  28
IMPERIAL       CLOUDY    30  28  92 S10       29.94R WCI  21
OGALLALA       CLOUDY    31  28  90 S7        29.91F WCI  24
NORTH PLATTE   CLOUDY    27  23  85 S13       29.94F WCI  16
MCCOOK         CLOUDY    28  23  81 SE6       29.97F WCI  22
LEXINGTON      PTCLDY    25  15  67 SE14      30.00F WCI  13
STAPLETON        N/A     25  23  92 CALM        N/A
$$

...OBSERVATIONS IN CENTRAL LINCOLN COUNTY AREA...

CITY           SKY/WX    TMP DP  RH WIND       PRES   REMARKS
N.P. AIRPORT   CLOUDY    27  23  85 S13       29.94F WCI  16
N.P. DOWNTOWN    N/A     27  25  91 S6          N/A  WCI  21
N.P. SOUTHEAST   N/A     27  24  89 S8G17       N/A  WCI  19
N.P. HILLCREST   N/A     27  26  94 S13G20      N/A  WCI  16
$$

...SOME OBSERVATIONS FROM AROUND THE REGION...

CITY           SKY/WX    TMP DP  RH WIND       PRES   REMARKS
DENVER         CLOUDY    53  17  24 SW17      29.92F
LARAMIE        CLEAR     37  18  46 W37G53    30.02R WCI  23
CHEYENNE       CLEAR     44  15  31 NW21G32   29.99R
SCOTTSBLUFF    PTCLDY    40  30  67 N33G43    29.96R WCI  28
RAPID CITY     LGT RAIN  37  34  89 NW30G39   29.86R WCI  24
BISMARCK       LGT SNOW  18  12  77 SE13      29.91F WCI   5
PIERRE         CLOUDY    26  22  84 S6        29.91R WCI  19
WINNER         CLOUDY    27  19  72 S24G32    29.86F WCI  12
SIOUX FALLS    LGT SNOW  11   7  84 S20       30.17F FOG     WCI  -7
OMAHA          CLOUDY    19   3  49 SE16      30.27F WCI   4
GRAND ISLAND   CLOUDY    20   8  60 SE14      30.10F WCI   7
KANSAS CITY    CLOUDY    20   3  48 SE12      30.29S WCI   8
WICHITA        CLOUDY    37  10  32 E12       30.12F WCI  29
OKLAHOMA CITY  MOCLDY    50  35  56 SE16      30.07S
LIBERAL        CLEAR     50  30  46 E18G25    29.90F
HAYS           CLOUDY    30  12  47 SE12      30.04F WCI  21
GOODLAND       CLEAR     31  28  89 S12       29.93F WCI  22
$$




USA.gov is the U.S. government's official web portal to all federal, state and local government web resources and services.